Location: Casa Rossa
(45.2389°N, 12.2056°E)
Time: 23:46:26
(UTC+00:00)

Cosmos 1602 - Pass Details

Date: 14 July 2020
Orbit: 515 x 533 km, 82.5° (Epoch: 14 August)

Event Time Altitude Azimuth Distance (km) Brightness Sun altitude
Exits shadow 00:17:21 71° 119° (ESE) 551 3.6 -21.7°
Maximum altitude 00:17:30 73° 97° (E) 547 3.7 -21.7°
Drops below altitude 10° 00:21:21 10° 13° (NNE) 1,761 7.6 -21.5°
Sets 00:23:30 0° 11° (N) 2,657 8.8 -21.4°
